Altus AFB, OK

4:48 PM CDT on August 19, 2017 (GMT -0500)
Altus Air Force Base

Weather History for KLTS - February, 2013

Change the Weather History Date:

Saturday, February 9, 2013

  Actual Average Record
Temperature  
Mean Temperature 46 °F -  
Max Temperature 54 °F 53 °F 73 °F (2015)
Min Temperature 39 °F 30 °F 23 °F (2014)
Degree Days  
Heating Degree Days 19    
Moisture  
Dew Point 47 °F    
Average Humidity 93    
Maximum Humidity 100    
Minimum Humidity 64    
Precipitation  
Precipitation 0.00 in - - ()
Sea Level Pressure  
Sea Level Pressure 29.76 in    
Wind  
Wind Speed 16 mph (SE)    
Max Wind Speed 30 mph    
Max Gust Speed 43 mph    
Visibility 6 miles    
Events Rain    
Averages and records for this station are not official NWS values.
T = Trace of Precipitation, MM = Missing Value Source: NWS Daily Summary

Daily Weather History Graph

Daily Weather History Graph

Search for Another Location

Airport or City:

Trip Planner

Search our weather history database for the weather conditions in past years. The results will help you decide how hot, cold, wet, or windy it might be!

Date:

Astronomy

Feb. 09, 2013 Rise Set
Actual Time 7:28 AM CST 6:14 PM CST
Civil Twilight 7:02 AM CST 6:40 PM CST
Nautical Twilight 6:32 AM CST 7:10 PM CST
Astronomical Twilight 6:03 AM CST 7:40 PM CST
Moon 6:41 AM CST (2/9) 5:57 PM CST (2/9)
Length of Visible Light 11h 38m
Length of Day
10h 46m
Waning Crescent, 0% of the Moon is Illuminated
Feb 9
Waning Crescent
Feb 10
New
Feb 17
First Quarter
Feb 25
Full
Mar 4
Last Quarter

Hourly Weather History & Observations

Time (CST) Temp. Windchill Dew Point Humidity Pressure Visibility Wind Dir Wind Speed Gust Speed Precip Events Conditions
12:55 AM 39.0 °F 33.4 °F 27.9 °F 64% 30.07 in 10.0 mi ESE 8.1 mph - N/A   Clear
1:55 AM 40.1 °F 34.7 °F 29.3 °F 65% 30.06 in 10.0 mi ESE 8.1 mph - N/A   Partly Cloudy
2:55 AM 40.6 °F 34.3 °F 30.7 °F 68% 30.03 in 10.0 mi ESE 10.4 mph - N/A   Clear
3:55 AM 41.7 °F 37.3 °F 31.3 °F 66% 30.02 in 10.0 mi ESE 6.9 mph - N/A   Scattered Clouds
4:55 AM 41.0 °F 34.7 °F 31.6 °F 69% 30.00 in 10.0 mi SE 10.4 mph - N/A   Clear
5:36 AM 41.0 °F 34.3 °F 32.0 °F 70% 29.98 in 10.0 mi SE 11.5 mph - N/A   Mostly Cloudy
5:45 AM 41.0 °F 33.9 °F 32.0 °F 70% 29.98 in 10.0 mi SE 12.7 mph - N/A   Scattered Clouds
5:55 AM 40.8 °F 33.7 °F 32.2 °F 71% 29.97 in 10.0 mi SE 12.7 mph - N/A   Scattered Clouds
6:17 AM 42.8 °F 36.2 °F 33.8 °F 70% 29.98 in 10.0 mi SE 12.7 mph - N/A   Mostly Cloudy
6:55 AM 43.0 °F 36.4 °F 35.6 °F 75% 29.98 in 10.0 mi SE 12.7 mph - N/A   Overcast
7:32 AM 44.6 °F 36.9 °F 37.4 °F 76% 29.96 in 10.0 mi ESE 18.4 mph - N/A   Mostly Cloudy
7:55 AM 44.4 °F 36.4 °F 38.1 °F 79% 29.96 in 10.0 mi SE 19.6 mph - N/A   Mostly Cloudy
8:43 AM 46.4 °F 38.7 °F 41.0 °F 81% 29.95 in 10.0 mi ESE 20.7 mph - N/A   Overcast
8:55 AM 46.4 °F 38.7 °F 41.2 °F 82% 29.95 in 10.0 mi ESE 20.7 mph - N/A   Overcast
9:32 AM 48.2 °F - 42.8 °F 82% 29.95 in 10.0 mi SE 19.6 mph - N/A   Overcast
9:55 AM 48.2 °F - 44.1 °F 86% 29.95 in 10.0 mi SE 19.6 mph - N/A   Overcast
10:55 AM 48.4 °F - 44.8 °F 87% 29.95 in 10.0 mi SE 16.1 mph - N/A   Overcast
11:55 AM 49.1 °F - 45.5 °F 87% 29.91 in 10.0 mi ESE 19.6 mph - N/A   Overcast
12:55 PM 50.7 °F - 47.3 °F 88% 29.87 in 10.0 mi SE 23.0 mph - N/A   Overcast
1:14 PM 50.0 °F - 48.2 °F 94% 29.85 in 10.0 mi SE 18.4 mph 24.2 mph N/A   Overcast
1:28 PM 50.0 °F - 48.2 °F 94% 29.83 in 7.0 mi SE 19.6 mph 25.3 mph N/A   Overcast
1:44 PM 50.0 °F - 50.0 °F 100% 29.81 in 4.0 mi SE 20.7 mph - N/A   Overcast
1:55 PM 49.5 °F - 49.1 °F 99% 29.81 in 3.0 mi SE 20.7 mph 27.6 mph N/A   Overcast
1:58 PM 48.2 °F - 48.2 °F 100% 29.80 in 2.5 mi SE 23.0 mph - N/A   Overcast
2:30 PM 48.2 °F - 48.2 °F 100% 29.78 in 2.0 mi SE 21.9 mph - N/A   Overcast
2:55 PM 48.0 °F - 48.0 °F 100% 29.77 in 2.5 mi SE 19.6 mph - N/A   Overcast
3:09 PM 48.2 °F - 48.2 °F 100% 29.76 in 3.0 mi SE 20.7 mph - N/A   Overcast
3:12 PM 48.2 °F - 48.2 °F 100% 29.76 in 3.0 mi SE 19.6 mph - N/A   Overcast
3:19 PM 48.2 °F - 48.2 °F 100% 29.76 in 2.5 mi SE 19.6 mph - N/A   Overcast
3:24 PM 48.2 °F - 48.2 °F 100% 29.75 in 2.5 mi ESE 20.7 mph - N/A   Overcast
3:55 PM 47.8 °F - 47.8 °F 100% 29.73 in 2.5 mi SE 21.9 mph - N/A   Overcast
4:16 PM 48.2 °F - 48.2 °F 100% 29.73 in 1.8 mi SE 17.3 mph - N/A   Overcast
4:19 PM 48.2 °F - 48.2 °F 100% 29.72 in 2.0 mi SE 18.4 mph - N/A   Overcast
4:45 PM 48.2 °F - 48.2 °F 100% 29.71 in 2.5 mi SE 18.4 mph 25.3 mph N/A   Overcast
4:46 PM 48.2 °F - 48.2 °F 100% 29.71 in 3.0 mi SE 18.4 mph 25.3 mph N/A   Overcast
4:55 PM 48.0 °F - 48.0 °F 100% 29.71 in 3.0 mi SE 20.7 mph - N/A   Overcast
5:55 PM 49.5 °F - 49.5 °F 100% 29.70 in 3.0 mi SE 23.0 mph - N/A   Overcast
6:14 PM 50.0 °F - 50.0 °F 100% 29.68 in 3.0 mi SE 24.2 mph 29.9 mph N/A   Overcast
6:55 PM 50.0 °F - 50.0 °F 100% 29.68 in 4.0 mi SE 27.6 mph 33.4 mph N/A   Overcast
7:05 PM 50.0 °F - 50.0 °F 100% 29.67 in 3.0 mi SE 25.3 mph 31.1 mph N/A   Overcast
7:18 PM 50.0 °F - 50.0 °F 100% 29.67 in 2.5 mi SE 25.3 mph 34.5 mph N/A   Overcast
7:24 PM 50.0 °F - 50.0 °F 100% 29.66 in 3.0 mi SE 24.2 mph - N/A   Overcast
7:55 PM 50.5 °F - 50.5 °F 100% 29.65 in 3.0 mi SE 21.9 mph 31.1 mph N/A   Overcast
7:57 PM 50.0 °F - 50.0 °F 100% 29.65 in 3.0 mi SE 24.2 mph 29.9 mph N/A   Overcast
7:58 PM 50.0 °F - 50.0 °F 100% 29.65 in 2.5 mi SE 24.2 mph 29.9 mph N/A   Overcast
8:11 PM 50.0 °F - 50.0 °F 100% 29.63 in 3.0 mi SE 24.2 mph 33.4 mph N/A   Overcast
8:12 PM 50.0 °F - 50.0 °F 100% 29.63 in 3.0 mi SE 25.3 mph 33.4 mph N/A   Overcast
8:18 PM 51.8 °F - 51.8 °F 100% 29.63 in 3.0 mi SE 25.3 mph 29.9 mph N/A   Overcast
8:38 PM 51.8 °F - 51.8 °F 100% 29.62 in 3.0 mi SE 24.2 mph 32.2 mph N/A   Overcast
8:45 PM 51.8 °F - 51.8 °F 100% 29.62 in 3.0 mi SE 28.8 mph 34.5 mph N/A   Overcast
8:55 PM 51.3 °F - 51.3 °F 100% 29.61 in 3.0 mi SE 27.6 mph 34.5 mph N/A   Overcast
8:58 PM 51.8 °F - 51.8 °F 100% 29.60 in 3.0 mi SE 28.8 mph 39.1 mph N/A   Overcast
9:02 PM 51.8 °F - 51.8 °F 100% 29.60 in 2.5 mi SE 29.9 mph 42.6 mph N/A   Overcast
9:07 PM 51.8 °F - 51.8 °F 100% 29.60 in 2.5 mi SE 28.8 mph 42.6 mph N/A   Overcast
9:32 PM 51.8 °F - 51.8 °F 100% 29.62 in 2.5 mi SE 25.3 mph 32.2 mph N/A   Overcast
9:35 PM 51.8 °F - 51.8 °F 100% 29.62 in 2.5 mi SE 23.0 mph 31.1 mph N/A   Overcast
9:55 PM 52.0 °F - 52.0 °F 100% 29.63 in 2.5 mi SSE 19.6 mph 29.9 mph N/A   Overcast
9:56 PM 51.8 °F - 51.8 °F 100% 29.64 in 3.0 mi SSE 17.3 mph 27.6 mph N/A   Overcast
9:58 PM 51.8 °F - 51.8 °F 100% 29.64 in 3.0 mi SSE 17.3 mph 27.6 mph N/A   Overcast
10:14 PM 51.8 °F - 51.8 °F 100% 29.65 in 4.0 mi SSE 23.0 mph 29.9 mph N/A   Overcast
10:31 PM 53.6 °F - 53.6 °F 100% 29.67 in 5.0 mi SSE 16.1 mph - N/A   Overcast
10:41 PM 53.6 °F - 53.6 °F 100% 29.66 in 6.0 mi SSE 18.4 mph - N/A   Overcast
10:46 PM 53.6 °F - 53.6 °F 100% 29.66 in 6.0 mi South 13.8 mph - N/A   Overcast
10:55 PM 53.2 °F - 53.2 °F 100% 29.66 in 6.0 mi South 10.4 mph - N/A   Overcast
10:57 PM 53.6 °F - 53.6 °F 100% 29.67 in 7.0 mi South 10.4 mph - N/A   Overcast
11:00 PM 53.6 °F - 53.6 °F 100% 29.67 in 7.0 mi SSW 12.7 mph - N/A Rain Light Rain
11:05 PM 53.6 °F - 53.6 °F 100% 29.68 in 7.0 mi South 15.0 mph - N/A Rain Light Rain
11:20 PM 53.6 °F - 53.6 °F 100% 29.68 in 10.0 mi SSW 11.5 mph - N/A Rain Light Rain
11:30 PM 53.6 °F - 53.6 °F 100% 29.68 in 10.0 mi South 10.4 mph - N/A   Light Drizzle
11:32 PM 53.6 °F - 53.6 °F 100% 29.69 in 10.0 mi South 9.2 mph - N/A   Overcast
11:38 PM 53.6 °F - 53.6 °F 100% 29.69 in 10.0 mi SSW 8.1 mph - N/A   Overcast
11:55 PM 54.0 °F - 54.0 °F 100% 29.69 in 10.0 mi SW 6.9 mph - 0.00 in   Mostly Cloudy